User: anonymous   Login
Location: Stigler
(35.2540°N, 95.1230°W)
Time: 10:12:14
(UTC-05:00)
Language:

Cosmos 1805 - Orbit

View from above orbital plane
View from above orbital plane
View from above satellite
View from above satellite

Ground track
Ground track

The orbit data is extracted from the following two-line orbital elements,

1 17191U 86097A   17112.90034758 +.00000859 +00000-0 +48700-4 0  9992
2 17191 082.4740 083.9236 0003407 264.9517 095.1325 15.11701154655002
Epoch (UTC): 22 April 2017 21:36:30
Eccentricity: 0.0003407
inclination: 82.4740°
perigee height: 528 km
apogee height: 533 km
right ascension of ascending node: 83.9236°
argument of perigee: 264.9517°
revolutions per day: 15.11701154
mean anomaly at epoch: 95.1325°
orbit number at epoch: 65500

The dashed part of the orbit path shows where the satellite is in the earth's shadow,  

DLR